[Date Prev][Date Next][Thread Prev][Thread Next] - [Date Index][Thread Index][Author Index]
2 Line ISS Keps 5-1
- Subject: [sarex] 2 Line ISS Keps 5-1
- From: "Dave Larsen PhD" <doc@xxxxxxxxxxx>
- Date: Mon, 1 May 2006 05:30:23 -0700
ISS
1 25544U 98067A 06121.44502315 .00017247 00000-0 11325-3 0 8405
2 25544 051.6386 068.0752 0008756 170.1797 333.2989 15.75807820425794
----
Via the sarex mailing list at AMSAT.ORG courtesy of AMSAT-NA.
To unsubscribe, send "unsubscribe sarex" to Majordomo@amsat.org
AMSAT Home